KF5WKW Weather Reports


time (UTC)temp
C
wind
direction
speed
KPH
gust
KPH
rain 1hr
cm
rain 24hr
cm
rain mn
cm
humidity
%
barometer
mb
20260504024516 12 0.0 0.0 0.00 0.00 0.00 89 1015.1
20260504023536 13 0.0 0.0 0.00 0.00 0.00 88 1015.1
20260504022516 13 0.0 0.0 0.00 0.00 0.00 87 1015.0
20260504021536 13 0.0 0.0 0.00 0.00 0.00 86 1014.9
20260504020516 13 0.0 0.0 0.00 0.00 0.00 85 1014.8
20260504015536 14 0.0 0.0 0.00 0.00 0.00 84 1014.7
20260504014516 15 0.0 0.0 0.00 0.00 0.00 82 1014.6
20260504013516 15 0.0 0.0 0.00 0.00 0.00 81 1014.5
20260504012516 15 0.0 0.0 0.00 0.00 0.00 79 1014.4
20260504011515 16 0.0 3.2 0.00 0.00 0.00 77 1014.3
20260504010516 16 0.0 0.0 0.00 0.00 0.00 73 1014.2
20260504005516 17 0.0 0.0 0.00 0.00 0.00 70 1014.1
20260504004515 18 0.0 0.0 0.00 0.00 0.00 65 1014.1
20260504003516 19 0.0 0.0 0.00 0.00 0.00 65 1013.9
20260504002516 20 0.0 1.6 0.00 0.00 0.00 59 1013.8
20260504001517 21 0.0 3.2 0.00 0.00 0.00 50 1013.8
20260504000515 22 0.0 4.8 0.00 0.00 0.00 47 1013.7
20260503235515 22 338 1.6 4.8 0.00 0.00 0.00 44 1013.7
20260503234516 23 315 1.6 6.4 0.00 0.00 0.00 44 1013.6
20260503233515 23 0.0 3.2 0.00 0.00 0.00 43 1013.6
20260503232516 23 315 1.6 4.8 0.00 0.00 0.00 42 1013.6
20260503231515 23 315 4.8 11.3 0.00 0.00 0.00 41 1013.6
20260503230537 23 315 3.2 8.0 0.00 0.00 0.00 41 1013.6
20260503225517 23 338 4.8 8.0 0.00 0.00 0.00 41 1013.6
20260503224517 24 315 8.0 14.5 0.00 0.00 0.00 39 1013.5
20260503223517 24 315 1.6 9.7 0.00 0.00 0.00 39 1013.6
20260503222517 24 0.0 6.4 0.00 0.00 0.00 38 1013.7
20260503221520 25 338 4.8 11.3 0.00 0.00 0.00 39 1013.5
20260503220517 25 293 1.6 9.7 0.00 0.00 0.00 38 1013.6
20260503215517 25 315 1.6 9.7 0.00 0.00 0.00 37 1013.8
20260503214517 25 45 6.4 14.5 0.00 0.00 0.00 36 1013.8
20260503213517 25 315 6.4 11.3 0.00 0.00 0.00 37 1013.9
20260503212517 25 315 4.8 12.9 0.00 0.00 0.00 38 1014.0
20260503211537 25 315 6.4 16.1 0.00 0.00 0.00 37 1014.1
20260503210517 25 338 3.2 12.9 0.00 0.00 0.00 38 1014.3
20260503205517 25 315 3.2 14.5 0.00 0.00 0.00 34 1014.4
20260503204537 25 315 12.9 19.3 0.00 0.00 0.00 33 1014.6
20260503203538 25 315 3.2 9.7 0.00 0.00 0.00 34 1014.5
20260503202517 25 338 1.6 9.7 0.00 0.00 0.00 41 1014.6
20260503201517 25 338 8.0 14.5 0.00 0.00 0.00 37 1014.8
20260503200517 25 338 8.0 16.1 0.00 0.00 0.00 37 1014.9
20260503195517 25 315 9.7 19.3 0.00 0.00 0.00 35 1015.1
20260503194517 25 338 4.8 22.5 0.00 0.00 0.00 35 1015.2
20260503193517 24 315 9.7 19.3 0.00 0.00 0.00 36 1015.4
20260503192517 24 315 4.8 9.7 0.00 0.00 0.00 34 1015.5
20260503191517 24 315 12.9 20.9 0.00 0.00 0.00 35 1015.7
20260503190517 24 315 4.8 12.9 0.00 0.00 0.00 34 1015.9
20260503185517 24 315 6.4 12.9 0.00 0.00 0.00 42 1016.0
20260503184537 23 315 8.0 16.1 0.00 0.00 0.00 34 1016.0
20260503183517 24 315 6.4 14.5 0.00 0.00 0.00 37 1016.3
20260503182517 23 338 4.8 11.3 0.00 0.00 0.00 40 1016.2
20260503181517 23 315 4.8 14.5 0.00 0.00 0.00 39 1016.3
20260503180517 23 338 4.8 12.9 0.00 0.00 0.00 37 1016.5
20260503175517 23 315 8.0 17.7 0.00 0.00 0.00 39 1016.5
20260503174518 23 293 4.8 14.5 0.00 0.00 0.00 38 1016.7
20260503173517 23 315 8.0 19.3 0.00 0.00 0.00 40 1016.8
20260503172516 23 315 8.0 19.3 0.00 0.00 0.00 37 1017.1
20260503171518 23 315 4.8 14.5 0.00 0.00 0.00 39 1017.3
20260503170517 22 315 9.7 20.9 0.00 0.00 0.00 39 1017.3
20260503150517 21 315 1.6 11.3 0.00 0.00 0.00 54 1018.3
20260503130516 15 0.0 1.6 0.00 0.00 0.00 81 1017.3
20260503110516 5 0.0 0.0 0.00 0.25 0.00 99 1016.5
20260503081517 6 0.0 0.0 0.00 1.04 0.00 99 1015.3
20260503080517 6 0.0 0.0 0.00 1.09 0.00 99 1015.3
20260503072537 7 0.0 0.0 0.00 1.32 0.00 98 1015.2
20260503071517 7 0.0 0.0 0.00 1.40 0.00 98 1015.2
20260503070517 7 0.0 0.0 0.00 1.47 0.00 98 1015.2
20260503054517 8 0.0 0.0 0.00 2.13 0.00 97 1014.8
20260503053517 8 0.0 0.0 0.00 2.16 0.00 97 1014.9
20260503052537 8 0.0 0.0 0.00 2.16 0.00 97 1014.8
20260503051517 8 0.0 0.0 0.00 2.16 0.00 97 1014.8
20260503050517 8 0.0 0.0 0.00 2.16 0.00 97 1014.7
20260503045516 8 0.0 0.0 0.00 2.16 2.16 96 1014.6
20260503044516 8 0.0 0.0 0.00 2.16 2.16 96 1014.7
20260503043516 8 0.0 0.0 0.00 2.16 2.16 95 1014.4
20260503042516 8 0.0 0.0 0.00 2.16 2.16 95 1014.5
20260503041516 9 0.0 0.0 0.00 2.18 2.16 95 1014.4
20260503040537 9 0.0 0.0 0.00 2.18 2.16 94 1014.4
20260503035536 9 0.0 0.0 0.00 2.21 2.16 93 1014.4
20260503034516 10 0.0 0.0 0.00 2.29 2.16 92 1014.2
20260503033516 10 0.0 0.0 0.00 2.34 2.16 91 1014.1
20260503032516 10 0.0 0.0 0.00 2.39 2.16 91 1014.1
20260503031536 10 0.0 0.0 0.00 2.39 2.16 91 1013.9
20260503030516 11 0.0 0.0 0.00 2.41 2.16 89 1014.0
20260503025516 11 0.0 0.0 0.00 2.44 2.16 87 1013.9